RH
69 71 75 77 77 73 74 81 80 70 70 75 77 76 76 76 76 74 73 70 63 60 60 60 58 54 51 52 56 59 60 54 48 46 48 53 57 57 58 59 59 58 60 57 55 56 55 55 54 51 52 56 58 60 64 66 66 64 61 59 57 56 57 56 52 49 47 43 41 41 40 37 36 33 28 23 20 18 18 18 17 15 13 13 14
70 71 73 78 78 72 73 80 77 69 71 75 77 77 75 75 75 73 71 68 63 60 60 60 59 55 53 55 58 61 59 52 50 51 52 54 57 60 62 61 59 60 61 60 57 56 56 56 55 54 56 59 59 60 62 64 62 60 57 56 56 57 57 54 51 48 43 38 34 34 34 31 28 26 23 20 19 19 20 19 18 16 15 15 16
69 70 73 80 81 75 74 79 76 71 73 76 79 80 78 76 75 73 69 64 61 62 63 63 64 63 60 62 65 64 58 53 53 55 53 55 59 62 61 60 60 61 63 62 59 58 57 55 54 55 58 59 60 61 62 62 58 55 56 57 56 56 55 51 47 44 41 37 33 31 31 28 24 23 24 23 22 22 22 21 19 17 17 18 19
68 67 69 80 86 80 77 79 79 76 74 76 81 83 80 76 74 72 66 61 63 66 66 67 70 69 66 67 70 66 59 55 55 55 55 58 60 57 55 56 59 63 63 62 60 58 55 53 53 54 55 56 59 61 61 58 53 51 52 54 54 55 53 48 45 44 44 42 37 32 34 34 30 29 30 30 28 27 27 26 25 23 22 22 23
72 69 68 74 81 81 79 79 81 81 76 77 82 83 78 74 73 70 63 61 65 67 67 68 71 69 66 69 72 66 59 57 56 55 55 56 53 51 51 54 60 64 64 62 60 58 56 56 55 53 54 56 58 58 56 54 53 54 54 51 48 50 50 49 50 49 48 47 42 37 39 41 40 39 39 37 36 35 33 33 32 32 31 30 30
74 73 71 72 74 79 82 82 83 84 80 79 83 81 78 75 72 67 61 64 68 66 66 69 69 69 68 71 71 66 61 60 58 57 55 52 49 48 48 53 60 65 66 64 62 61 59 59 57 55 55 56 55 54 53 52 53 56 57 53 48 48 51 52 52 51 49 49 46 43 44 45 44 44 43 43 42 41 40 40 39 39 39 39 40
77 76 74 75 77 82 88 87 86 86 81 80 82 80 77 74 69 65 62 66 68 67 67 69 68 69 70 72 73 70 65 63 59 56 55 52 50 48 47 50 56 61 64 65 64 63 62 60 58 56 54 52 51 51 52 51 51 53 56 56 56 55 55 53 51 51 51 52 50 46 46 49 48 48 48 49 49 48 47 48 49 48 48 48 49
78 80 79 82 84 87 92 91 89 88 82 79 80 78 75 72 68 67 65 65 67 68 70 70 68 69 71 72 73 71 67 63 60 58 56 54 52 50 48 49 52 55 58 61 62 62 62 60 58 57 55 53 52 52 53 54 56 58 60 62 62 62 61 58 55 55 55 55 53 50 50 54 56 54 53 54 55 55 55 54 54 56 56 55 56
74 80 81 85 88 91 93 92 90 90 86 82 81 79 76 74 72 70 67 65 67 70 70 69 68 69 71 71 71 71 68 65 62 60 57 55 54 53 51 51 52 53 55 58 58 60 62 62 60 60 60 59 57 56 57 60 62 64 65 65 63 62 62 61 59 59 60 58 58 58 58 59 59 57 58 60 60 60 58 57 56 59 61 60 59
77 80 82 86 91 93 94 92 91 91 88 84 82 80 78 76 73 71 69 68 69 69 68 67 68 69 70 70 71 71 69 66 64 62 59 58 58 58 57 56 56 58 59 60 60 61 63 64 64 65 64 63 60 59 60 61 61 62 62 61 60 59 59 58 58 60 62 62 63 63 62 62 63 62 64 66 65 63 63 62 62 64 64 63 62
81 81 83 88 94 94 93 93 91 90 88 85 81 80 78 75 72 71 70 71 71 69 69 70 69 69 70 70 71 72 70 67 65 63 62 61 62 62 62 61 61 62 63 64 64 64 64 64 66 66 65 64 62 61 61 62 62 61 61 61 61 60 60 60 60 61 62 62 62 61 61 63 64 64 65 67 68 68 69 70 71 70 68 67 67
87 87 89 92 95 94 92 93 92 90 90 87 81 79 77 73 71 73 74 74 74 72 71 71 70 69 70 71 71 72 71 68 66 65 65 65 67 66 65 64 63 64 65 66 67 66 65 64 63 63 63 63 62 62 63 64 63 63 63 65 66 66 67 67 66 65 63 61 60 61 61 63 64 65 66 67 67 68 69 72 74 74 72 71 72
93 93 94 95 96 94 94 95 94 92 92 89 82 79 78 73 71 74 77 77 77 75 73 72 71 71 71 69 69 70 69 67 67 69 69 70 71 70 69 69 68 69 70 69 68 67 66 65 64 65 65 64 63 62 62 63 62 60 61 62 62 62 63 64 64 62 61 60 62 63 64 65 65 66 67 68 69 69 69 70 72 73 73 73 74
97 96 97 97 97 97 96 96 95 93 93 90 85 81 78 75 73 76 79 80 79 77 75 73 72 72 71 69 69 69 69 69 70 73 73 73 74 74 74 73 73 75 76 74 71 69 69 70 71 72 73 72 71 70 69 68 66 65 65 65 65 65 66 68 70 72 72 72 71 71 70 69 68 69 69 71 73 73 72 72 73 75 77 76 76
98 98 98 98 98 97 95 95 95 95 94 92 89 85 81 78 77 78 82 84 82 81 80 76 73 72 70 68 68 68 69 72 74 75 75 76 77 78 76 75 77 79 78 76 75 75 76 78 79 79 79 78 79 80 80 79 79 77 76 75 75 75 74 74 74 77 78 77 75 74 74 74 73 73 73 74 75 76 78 81 84 85 84 81 80
96 97 99 99 99 97 95 96 97 96 94 92 91 90 87 85 84 83 84 86 85 84 83 79 74 72 69 67 65 66 68 72 73 74 75 77 78 78 76 75 77 77 74 73 73 74 77 80 81 81 79 78 80 84 87 87 86 84 84 82 81 80 78 76 75 77 79 79 76 75 76 76 77 77 77 77 77 77 81 86 87 88 87 83 81
96 97 99 99 99 98 98 97 97 96 95 94 92 93 92 89 88 87 87 87 87 86 85 83 79 74 71 69 69 69 71 73 74 74 73 73 74 74 73 74 75 75 75 77 77 76 78 78 78 81 81 81 83 86 89 88 84 83 84 84 83 82 81 81 81 82 82 82 81 80 79 80 81 81 81 81 82 81 83 85 85 86 87 86 83
96 98 99 99 99 100 100 99 98 97 96 94 93 93 92 91 89 88 87 85 84 84 84 84 81 79 77 75 75 76 76 75 75 75 73 73 73 74 74 75 76 77 81 84 85 85 85 83 81 82 83 82 84 86 88 89 87 85 84 82 81 81 81 82 83 83 83 84 83 81 80 80 81 83 84 86 88 88 86 85 84 84 85 85 84
94 96 98 99 99 99 100 100 99 99 97 95 95 94 93 92 91 89 87 85 84 83 83 82 81 80 79 80 81 81 80 78 77 76 75 75 77 78 77 78 79 82 85 85 87 89 90 87 85 83 81 80 82 83 84 84 83 82 80 79 79 79 79 79 79 79 80 81 80 80 80 80 81 82 85 86 87 87 85 83 83 81 80 81 82
93 94 96 98 98 99 100 100 99 98 96 95 96 95 94 93 92 90 89 89 89 89 88 86 84 82 83 85 86 85 83 83 83 81 78 76 77 79 80 81 82 84 86 88 90 91 90 87 84 82 79 78 79 78 78 79 80 81 81 80 79 78 77 76 76 75 76 78 78 78 80 83 84 85 85 86 87 88 88 86 85 83 81 81 84
93 93 93 95 96 97 99 99 99 98 98 97 98 98 97 97 95 92 90 89 90 90 91 91 90 89 89 90 90 89 87 87 87 85 83 82 82 82 82 82 82 83 85 87 87 85 84 82 79 77 76 76 77 77 78 79 80 79 78 76 75 74 74 75 74 74 74 75 75 76 77 81 86 87 86 86 87 89 89 88 88 88 86 84 84
92 93 91 91 93 95 97 97 96 96 96 95 94 94 93 92 92 90 87 87 88 88 89 90 90 90 89 88 88 89 88 88 86 84 84 84 85 84 82 80 78 77 77 78 77 75 74 73 72 72 72 73 74 75 75 74 72 71 70 69 69 69 69 69 67 65 64 64 64 65 67 71 75 77 77 77 78 79 79 80 82 84 85 84 82
91 93 93 93 93 94 94 93 93 92 90 86 85 84 82 82 83 82 82 83 84 84 84 85 85 84 83 82 82 82 81 82 82 82 82 82 81 79 76 74 72 70 71 71 71 70 68 68 68 70 70 70 70 69 68 67 65 64 64 63 63 63 62 61 59 57 55 53 52 51 51 52 54 57 59 61 63 64 65 67 69 72 75 78 80
88 89 91 93 93 93 92 92 92 91 89 87 87 88 87 85 85 85 84 82 82 82 83 83 82 81 79 77 75 74 72 72 74 75 75 74 71 68 66 65 65 66 67 67 67 67 66 66 65 65 65 64 64 62 62 62 61 61 60 59 59 58 55 52 50 48 46 44 43 41 40 39 39 41 43 45 46 48 51 53 56 57 59 61 62
80 80 82 84 87 89 89 90 90 90 89 88 88 88 87 86 87 88 87 86 84 84 84 84 82 80 78 76 75 73 70 69 68 68 67 66 64 62 60 60 61 61 61 61 61 61 60 59 58 58 58 58 59 59 59 58 56 55 53 51 49 47 43 40 39 37 36 36 35 34 33 33 34 35 35 36 36 36 38 40 42 43 43 44 45
79 77 77 78 80 80 80 81 83 84 85 85 84 84 84 83 83 84 84 84 82 79 78 79 79 78 76 77 78 75 72 70 69 66 65 64 61 59 57 56 56 55 54 54 54 53 53 53 53 54 54 53 53 52 51 48 45 43 40 38 36 34 33 32 31 31 31 32 32 31 31 31 32 31 32 32 33 32 32 33 35 36 38 40 41
80 80 79 79 79 78 78 77 76 76 78 78 78 79 80 80 80 81 81 80 78 75 73 74 75 76 76 78 79 76 73 70 67 65 64 61 57 54 52 51 50 49 48 48 48 48 49 50 50 49 46 44 43 41 39 36 34 32 31 30 29 29 29 30 30 29 29 29 28 28 27 27 26 26 25 26 29 30 31 32 34 35 35 35 36
83 84 85 83 82 83 83 83 81 79 78 77 76 77 77 79 81 81 80 78 76 74 72 71 71 73 74 75 74 73 70 68 67 65 62 57 52 49 48 46 45 45 45 44 44 45 44 44 42 40 37 36 34 32 31 30 29 28 28 27 27 27 27 26 26 26 25 24 24 24 24 23 22 21 23 25 28 29 31 32 32 32 32 33 34
88 88 89 89 89 88 88 88 86 85 82 80 78 76 74 75 77 78 78 77 76 75 73 72 72 72 72 72 71 69 67 65 63 60 56 52 49 46 45 44 44 44 43 42 41 40 38 36 34 33 31 30 29 29 28 28 27 26 26 26 26 26 25 25 24 23 22 21 22 22 22 21 21 22 25 28 30 30 31 31 32 32 32 33 35
91 90 90 90 91 90 89 87 86 85 83 80 76 72 70 70 71 72 73 73 74 74 73 72 72 71 70 68 65 62 59 56 53 49 47 45 44 43 42 42 43 42 40 38 36 35 34 32 32 31 30 29 28 28 27 26 26 25 25 26 26 26 26 26 26 24 23 22 22 22 22 23 24 27 30 32 32 33 33 33 35 36 36 36 37
90 89 88 88 88 87 86 85 84 83 81 79 75 71 68 66 65 65 64 64 63 63 62 61 60 58 55 53 50 47 46 45 42 41 40 39 39 40 40 39 39 37 36 34 33 32 32 31 31 30 29 27 27 26 26 26 26 25 25 25 26 27 27 27 27 27 25 24 24 25 26 28 29 31 33 34 34 36 37 37 38 40 40 40 40
88 87 86 85 85 85 84 82 81 80 79 77 74 70 67 64 60 57 56 55 53 51 50 48 47 45 43 42 41 39 38 37 37 36 34 34 35 36 36 35 34 33 33 32 31 31 31 30 29 28 27 27 26 26 27 27 26 25 24 24 25 27 28 28 29 29 27 26 27 28 28 29 30 31 32 34 36 38 39 39 41 43 45 46 47
82 82 81 80 79 79 78 77 75 73 72 70 68 64 63 61 57 51 48 48 46 45 43 43 42 41 39 38 37 36 37 37 37 36 34 33 34 34 33 33 32 31 31 29 28 28 28 27 25 24 23 22 22 21 22 24 25 25 24 24 25 27 28 29 30 30 29 29 30 30 29 29 30 31 34 37 39 41 42 43 46 49 52 53 55
74 73 72 70 69 69 69 69 69 67 65 63 62 59 57 56 55 50 46 44 43 41 40 39 38 37 36 35 36 37 38 38 36 35 34 34 33 33 32 31 31 31 29 26 24 23 23 22 21 19 18 17 17 17 18 20 22 23 24 25 26 27 28 30 31 31 31 31 31 32 32 32 32 34 38 41 44 46 46 47 49 51 53 54 56
68 67 66 64 63 62 62 63 63 61 59 58 57 56 54 52 52 50 46 43 41 39 37 36 36 34 33 34 36 38 37 36 34 34 33 33 33 32 31 30 29 28 27 25 23 21 19 19 18 17 16 16 15 15 17 19 21 23 26 28 29 30 31 32 33 33 33 33 34 35 37 37 36 37 41 44 48 51 51 50 49 49 50 53 55
61 61 61 62 61 60 60 59 58 56 55 53 52 51 50 48 47 47 46 43 40 38 36 35 34 33 33 34 35 35 34 34 33 32 32 31 30 29 28 27 27 27 26 25 22 19 18 17 16 16 16 16 16 18 19 21 23 26 29 30 31 31 32 34 35 37 37 37 38 38 39 39 38 39 41 44 47 50 50 50 50 51 52 57 60
57 56 58 60 61 59 57 56 55 53 52 50 49 48 47 45 44 43 43 42 40 38 36 34 33 34 33 33 33 33 32 31 31 31 31 30 28 27 26 26 27 27 25 23 21 19 18 17 17 17 17 17 17 19 21 23 26 28 29 29 31 33 34 36 38 40 40 39 39 39 38 38 38 38 40 41 42 45 49 52 54 54 56 60 66
55 54 55 57 57 56 55 54 53 51 49 48 47 45 44 43 42 40 40 40 39 38 38 37 36 34 33 33 33 32 31 30 30 30 30 29 29 28 28 28 27 25 24 23 22 21 20 19 18 18 18 17 18 18 19 23 27 29 29 31 34 36 37 37 39 39 39 39 39 39 38 37 38 38 39 41 43 47 53 57 58 59 60 62 64
51 50 51 52 52 52 52 51 51 51 49 47 46 44 43 42 40 38 38 38 37 38 38 38 36 35 34 33 33 33 32 31 30 30 29 30 30 30 29 28 28 26 24 23 22 22 21 20 20 20 19 19 19 19 19 22 27 30 31 33 35 36 37 37 38 39 39 37 37 37 37 38 40 42 42 44 46 50 54 57 58 59 61 61 61
49 47 48 49 50 51 50 49 48 49 49 47 45 44 43 41 40 39 38 38 38 38 38 37 36 35 34 32 32 33 32 31 31 31 32 31 31 30 29 28 28 27 24 22 22 22 22 22 22 22 21 20 20 21 22 24 28 31 32 32 33 34 35 36 37 38 38 37 36 36 36 38 42 45 46 47 48 50 54 57 59 58 58 58 59
50 48 48 49 50 50 49 47 46 46 47 47 45 44 43 42 41 40 39 38 38 38 37 35 34 34 33 32 32 32 32 31 32 33 34 33 32 31 29 28 26 25 24 23 23 23 23 23 23 23 22 22 22 23 23 24 26 29 30 32 33 34 35 36 36 37 38 39 39 38 38 41 45 49 50 48 46 49 55 61 61 59 58 59 59
50 48 46 46 47 46 45 44 43 43 44 44 43 42 42 42 41 40 40 39 38 37 35 34 34 34 34 34 33 33 34 35 34 34 33 32 30 28 27 26 25 25 25 24 24 24 24 24 24 25 24 24 23 23 24 24 24 25 26 28 31 33 35 36 37 39 41 42 42 42 43 46 51 54 54 52 50 53 60 63 61 59 61 63 63
47 45 44 43 41 40 39 39 39 39 40 40 40 40 40 39 39 40 39 38 38 36 34 34 35 35 35 34 34 36 37 37 35 33 32 30 27 25 25 26 27 26 26 25 24 24 25 25 25 25 25 24 23 22 23 25 25 25 25 25 27 30 32 34 35 38 42 45 46 46 48 51 55 57 58 56 56 59 62 62 60 62 65 67 66
47 45 44 41 39 37 37 36 36 36 37 38 39 40 40 39 40 40 39 38 39 37 35 35 37 37 36 36 38 39 37 35 32 31 29 28 27 27 27 28 28 27 25 25 25 26 27 26 26 25 24 23 22 23 23 24 26 26 26 27 28 30 32 34 33 34 38 45 51 52 52 55 57 58 58 60 63 64 63 61 61 65 68 68 67
52 49 46 43 41 40 38 37 35 36 38 39 41 42 41 41 42 41 39 38 39 39 39 39 40 39 39 40 40 38 34 31 30 28 26 25 26 27 26 27 27 26 24 25 27 28 27 26 25 25 24 23 22 22 22 22 24 26 27 28 30 31 34 36 35 33 34 41 50 56 57 57 58 58 60 63 67 66 63 62 64 68 71 71 69
58 54 50 47 46 44 42 40 38 38 39 42 44 44 43 42 43 43 41 39 40 42 43 43 42 42 43 41 37 32 30 29 28 27 27 28 29 27 26 25 25 24 24 27 29 28 27 26 26 26 25 23 22 21 20 20 21 24 27 30 31 33 34 37 39 38 37 39 46 53 57 59 59 61 63 67 69 67 63 62 65 69 72 73 72
61 58 55 53 52 50 48 47 46 45 44 44 45 46 46 45 44 43 42 41 42 44 45 43 43 45 44 40 33 30 29 30 29 30 31 30 29 27 26 24 24 23 24 27 29 29 28 27 27 27 26 24 22 20 19 19 19 22 26 30 33 35 37 38 41 44 45 45 47 50 53 55 58 61 63 66 67 64 61 62 66 70 71 72 73
62 62 61 60 59 60 59 57 56 54 51 48 47 47 48 47 45 43 42 42 44 45 45 45 46 46 41 34 30 29 30 31 31 31 30 29 28 27 26 25 25 25 25 25 27 29 30 30 30 29 27 24 22 21 20 20 20 21 24 28 32 36 38 41 44 47 50 51 52 53 54 56 60 64 66 67 67 66 64 63 66 68 69 71 73
64 65 65 63 63 65 66 64 63 62 60 56 53 52 50 48 47 46 45 46 48 49 48 48 47 43 36 31 30 32 33 33 32 31 29 29 30 31 30 28 26 26 26 25 26 29 31 32 32 30 28 25 24 23 22 22 22 23 24 26 29 32 36 39 44 49 53 55 55 56 56 58 61 66 69 70 71 72 70 68 67 66 65 67 70
66 66 66 66 66 69 71 70 68 67 66 64 62 61 57 51 47 47 50 53 54 54 52 49 43 36 31 30 32 34 34 33 32 32 32 32 32 34 34 32 27 26 27 27 27 29 33 34 33 32 29 27 26 26 25 24 25 25 25 26 26 27 30 33 37 42 48 52 54 55 54 54 57 63 68 71 71 72 70 68 67 66 64 64 67
68 68 67 66 67 71 75 76 74 71 70 68 66 64 61 55 49 47 50 56 59 59 55 46 37 33 32 33 34 34 33 32 32 33 34 34 34 34 34 32 29 27 27 27 28 30 34 36 35 34 31 29 29 28 28 28 27 26 24 22 21 21 22 25 28 32 37 42 47 50 50 48 48 51 55 58 60 60 60 60 61 62 64 66 69